Regional Weather Roundup
Issued by NWS

Home | Current Version | Previous Version | Graphics & Text | Print | Product List | Glossary On
Versions: 1 2 3 4 5 6 7 8 9 10 11 12 13 14 15 16 17 18 19 20 21 22 23 24 25 26 27 28 29 30 31 32 33 34 35 36 37 38 39 40 41 42 43 44 45 46 47 48 49 50
000
ASUS43 KMKX 171221
RWRWI

WISCONSIN REGIONAL WEATHER ROUNDUP
NATIONAL WEATHER SERVICE MILWAUKEE/SULLIVAN WI
700 AM CDT WED SEP 17 2014

NOTE: "FAIR" INDICATES FEW OR NO CLOUDS BELOW 12,000 FEET WITH NO
SIGNIFICANT WEATHER AND/OR OBSTRUCTIONS TO VISIBILITY.

WIZ001-002-006>008-014>016-023>028-171300-
NORTHWEST WISCONSIN

CITY           SKY/WX    TMP DP  RH WIND       PRES   REMARKS
SUPERIOR ARPT  MOCLDY    39  38  98 CALM      29.93R
6HR MIN TEMP:  37; 6HR MAX TEMP:  48;

ASHLAND        CLEAR     44  41  89 SW7       29.94S
6HR MIN TEMP:  41; 6HR MAX TEMP:  52;

HAYWARD        PTCLDY    37  35  92 CALM      29.95S
6HR MIN TEMP:  36; 6HR MAX TEMP:  41;

SIREN          PTCLDY    47  45  91 CALM      29.95R
6HR MIN TEMP:  41; 6HR MAX TEMP:  48;

RICE LAKE      MOCLDY    44  43  97 CALM      29.98S
6HR MIN TEMP:  39; 6HR MAX TEMP:  44;

LADYSMITH      MOCLDY    42  41  95 CALM      29.99R
6HR MIN TEMP:  39; 6HR MAX TEMP:  43;

EAU CLAIRE     MOCLDY    46  43  89 CALM      29.97S
6HR MIN TEMP:  41; 6HR MAX TEMP:  46;

MENOMONIE      CLOUDY    48  47  94 CALM      29.98S
6HR MIN TEMP:  43; 6HR MAX TEMP:  48;

NEW RICHMOND   MOCLDY    49  48  94 CALM      29.97R
6HR MIN TEMP:  45; 6HR MAX TEMP:  51;

OSCEOLA        CLOUDY    51  50  95 SE3       29.98R
6HR MIN TEMP:  43; 6HR MAX TEMP:  52;

$$

WIZ003>005-009-010-017-018-171300-
NORTH CENTRAL WISCONSIN

CITY           SKY/WX    TMP DP  RH WIND       PRES   REMARKS
WOODRUFF       FAIR      40  38  93 CALM      29.97R
6HR MIN TEMP:  39; 6HR MAX TEMP:  45;

RHINELANDER    PTCLDY    42  40  92 SW3       29.98S
6HR MIN TEMP:  40; 6HR MAX TEMP:  44;

EAGLE RIVER      N/A     37  37 100 CALM      29.96S FOG
6HR MIN TEMP:  37; 6HR MAX TEMP:  44;

LAND O LAKES   CLEAR     36  36 100 CALM      29.97R FOG
6HR MIN TEMP:  36; 6HR MAX TEMP:  51;

PHILLIPS       CLEAR     40  39  97 CALM      29.96S
6HR MIN TEMP:  38; 6HR MAX TEMP:  42;

TOMAHAWK       PTCLDY    35  34  96 CALM      29.98S
6HR MIN TEMP:  33; 6HR MAX TEMP:  37;

MEDFORD        MOCLDY    42  41  97 S3        29.98S
6HR MIN TEMP:  36; 6HR MAX TEMP:  42;

MERRILL        MOCLDY    33  33 100 CALM      29.99R
6HR MIN TEMP:  33; 6HR MAX TEMP:  39;

$$

WIZ029-030-035-036-043>047-171300-
CENTRAL WISCONSIN

CITY           SKY/WX    TMP DP  RH WIND       PRES   REMARKS
WAUSAU         CLEAR     40  39  97 E5        29.98F
6HR MIN TEMP:  39; 6HR MAX TEMP:  45;

MOSINEE        CLEAR     39  39 100 W3        30.00F
MARSHFIELD     PTCLDY    42  40  92 CALM      29.99S
6HR MIN TEMP:  42; 6HR MAX TEMP:  46;

STEVENS POINT  CLEAR     35  33  94 CALM      30.01S
6HR MIN TEMP:  34; 6HR MAX TEMP:  40;

WAUPACA        CLEAR     41  40  96 CALM      30.02R
6HR MIN TEMP:  40; 6HR MAX TEMP:  45;

WAUTOMA        CLOUDY    36  36 100 CALM      30.03S
6HR MIN TEMP:  35; 6HR MAX TEMP:  40;

WISC RAPIDS    CLEAR     38  38 100 CALM      30.02S FOG
6HR MIN TEMP:  38; 6HR MAX TEMP:  43;

CAMP DOUGLAS   MOCLDY    41  41 100 E3        30.01S
$$

WIZ011>013-019>022-031-037>040-048>050-171300-
NORTHEAST WISCONSIN

CITY           SKY/WX    TMP DP  RH WIND       PRES   REMARKS
ANTIGO         CLEAR     37  37  99 CALM      29.99S
6HR MIN TEMP:  37; 6HR MAX TEMP:  41;

STURGEON BAY   CLEAR     48  45  87 SW7       30.00S
6HR MIN TEMP:  48; 6HR MAX TEMP:  52;

GREEN BAY      CLEAR     42  42 100 CALM      30.01S
6HR MIN TEMP:  40; 6HR MAX TEMP:  46;

MANITOWOC      CLEAR     48  43  82 W7        30.02S
6HR MIN TEMP:  47; 6HR MAX TEMP:  50;

APPLETON       PTCLDY    48  43  81 SW8       30.02R
CLINTONVILLE   CLEAR     37  37 100 CALM      30.01R
OSHKOSH        CLEAR     46  42  86 S3        30.01S
6HR MIN TEMP:  43; 6HR MAX TEMP:  50;

$$

WIZ032>034-041-042-053>061-171300-
SOUTHWEST WISCONSIN

CITY           SKY/WX    TMP DP  RH WIND       PRES   REMARKS
LA CROSSE      CLOUDY    50  46  86 SE6       30.01R
6HR MIN TEMP:  47; 6HR MAX TEMP:  50;

SPARTA         CLOUDY    39  39  99 CALM      30.02R
6HR MIN TEMP:  35; 6HR MAX TEMP:  39;

VIROQUA        CLOUDY    49  45  86 CALM      30.02R
6HR MIN TEMP:  45; 6HR MAX TEMP:  51;

BOSCOBEL       FOG       45  44  97 CALM      30.03F VSB 1/4
6HR MIN TEMP:  45; 6HR MAX TEMP:  47;

PRAIRIE DU CHI CLOUDY    43  42  96 CALM      30.01F FOG
6HR MIN TEMP:  43; 6HR MAX TEMP:  46;

PLATTEVILLE    FAIR      46  43  90 CALM      30.04R
6HR MIN TEMP:  44; 6HR MAX TEMP:  48;

$$

WIZ056-057-062-063-064-067-068-171300-
SOUTH CENTRAL WISCONSIN

CITY           SKY/WX    TMP DP  RH WIND       PRES   REMARKS
BARABOO/DELLS  CLEAR     42  40  94 CALM      30.02S
6HR MIN TEMP:  41; 6HR MAX TEMP:  44;

LONE ROCK      FOG       43  39  86 CALM      30.03F VSB 1/4
6HR MIN TEMP:  43; 6HR MAX TEMP:  46;

WATERTOWN      CLOUDY    39  39 100 CALM      30.04R
6HR MIN TEMP:  38; 6HR MAX TEMP:  41;

MADISON        PTCLDY    41  39  93 CALM      30.03S
6HR MIN TEMP:  39; 6HR MAX TEMP:  44;

MIDDLETON      FAIR      40  40 100 CALM      30.03S
6HR MIN TEMP:  39; 6HR MAX TEMP:  42;

MONROE         CLEAR     48  41  76 SW7       30.03F
JANESVILLE     CLEAR     43  39  87 CALM      30.04S
$$

WIZ051-052-058>065-066-070>072-171300-
SOUTHEAST WISCONSIN

CITY           SKY/WX    TMP DP  RH WIND       PRES   REMARKS
MILWAUKEE      PTCLDY    48  41  76 CALM      30.04S
6HR MIN TEMP:  48; 6HR MAX TEMP:  50;

WAUKESHA       CLEAR     43  41  93 S3        30.05S
MILWAUKEE/TIMM PTCLDY    43  39  87 CALM      30.05R
RACINE         CLEAR     49  44  83 W6        30.06R
6HR MIN TEMP:  47; 6HR MAX TEMP:  51;

BURLINGTON     FOG       34  34 100 CALM      30.05R VSB 1/2
6HR MIN TEMP:  34; 6HR MAX TEMP:  39;

KENOSHA        CLEAR     43  43 100 CALM      30.05S
6HR MIN TEMP:  40; 6HR MAX TEMP:  49;

FOND DU LAC    PTCLDY    42  39  89 S5        30.03S
6HR MIN TEMP:  41; 6HR MAX TEMP:  46;

SHEBOYGAN      CLEAR     41  40  96 CALM      30.03R
6HR MIN TEMP:  40; 6HR MAX TEMP:  45;

WEST BEND      PTCLDY    37  36  93 CALM      30.03S
JUNEAU         MOCLDY    41  40  97 CALM      30.04S
6HR MIN TEMP:  40; 6HR MAX TEMP:  44;

$$

LSZ147-162-171300-
LAKE SUPERIOR

STATION/POSITION TIME  TEMP    WIND        PRES    WAVE
                       AIR SEA DIR/SP/G            HT/PER
                 (UTC) (F)     (DEG/KT/KT) (MB)    (FT/S)
W MID LAKE BUOY  1150   47 47   20/ 12/ 16 1013.9R   2/ 4
DEVILS ISLAND    1200   50     310/  6/  6 1014.1R
PORT WING        1100   48     170/  2/  5 1013.9
SAXON HARBOR     1100   50     200/  5/  9 1013.5
$$

LMZ867-665-643>646-171300-
LAKE MICHIGAN

STATION/POSITION TIME  TEMP    WIND        PRES    WAVE
                       AIR SEA DIR/SP/G            HT/PER
                 (UTC) (F)     (DEG/KT/KT) (MB)    (FT/S)
N MID LAKE BUOY  1150   57 58  250/ 12/ 14 1014.9R   2/ 4
NORTHPORT PIER   1100   53     270/  3/  5 1014.9R
KEWAUNEE LAKESHO 1100   47     310/  5/  6 1014.8F
SHEBOYGAN LAKESH 1200   48 51  250/ 10/ 10 1017.2R
PORT WASHINGTON  1140   49     270/  5/  6 1017.6R
ATWATER BUOY     1200   52     240/ 12/ 12 1018.2R
MILWAUKEE LAKESH 1200   53     270/  4/  5   N/A
S MID LAKE BUOY  1150   61 65  220/ 12/ 16 1017.4R   1
KENOSHA   LAKESH 1200   51     260/  6/  8 1017.3R
$$

TC  - TEMPERATURE IN CELSIUS
VSB - VISIBILITY IN STATUTE MILES
WCI - WIND CHILL INDEX
HX  - HEAT INDEX




USA.gov is the U.S. government's official web portal to all federal, state and local government web resources and services.